[[{"header":{"parameterUnit":"m.s-1","parameterCategory":1,"la1":30.2991,"la2":30.254,"lo1":-89.0895,"lo2":-89.0444,"dy":0.0017,"dx":0.0017,"nx":28,"ny":28,"refTime":"2026-01-31T09:00:00:Z","depth":0,"parameterNumber":2,"parameterNumberName":"U-component_of_WINDS"},"data":[0,0,0,0,0,0,0,0,0,0,0,0,0,0,0,0,0,0,0,0,0,0,0,0,0,0,0,0,0,0,0,0,0,0,0,0,0,0,0,0,0,0,0,0,0,0,0,0,0,0,0,0,0,0,0,0,0,0,2.8906,2.8906,0,2.8957,2.8957,2.8958,2.889,2.8888,2.8885,2.8883,2.8938,2.8942,2.8945,0,0,0,0,0,0,0,0,0,0,0,0,0,2.8751,2.8755,2.8906,2.8906,2.8907,2.8957,2.8957,2.8958,2.8891,2.8888,2.8885,2.8882,2.8937,2.8941,2.8946,0,0,0,0,0,0,0,0,0,0,0,0,0,2.8812,2.8756,2.8905,2.8879,2.8877,2.8956,2.8957,2.8958,2.8891,2.8887,2.8884,2.888,2.8935,2.8941,2.8946,2.9055,0,0,2.8964,2.8966,0,0,0,0,0,0,0,0,2.8809,2.8818,2.8882,2.8881,2.8879,2.8913,2.8923,2.8991,2.8892,2.8886,2.8883,2.8879,2.8933,2.8938,2.8956,2.9057,2.906,2.8964,2.8967,2.897,2.8971,0,0,0,0,0,0,0,2.8805,2.8815,2.8926,2.8883,2.8881,2.8865,2.887,2.8936,2.893,2.8886,2.8881,2.8888,2.8931,2.8951,2.8957,2.906,2.8964,2.8969,2.8972,2.8975,2.9252,2.9255,0,0,0,0,0,0,2.8803,2.8812,2.8924,2.8927,2.8834,2.8871,2.8876,2.8906,2.8929,2.8928,2.8891,2.8885,2.8943,2.8951,2.8959,2.9086,2.897,2.8975,2.8978,2.9248,2.9253,2.9257,0,0,0,0,0,0,2.88,2.8814,2.8922,2.8869,2.8881,2.8878,2.8912,2.8909,2.8928,2.8932,2.8931,2.8912,2.8941,2.8951,2.9031,2.9087,2.8978,2.8983,2.9243,2.9249,2.9255,2.9343,0,0,0,0,0,0,2.8796,2.8813,2.8854,2.887,2.8884,2.8993,2.8915,2.8913,2.8938,2.893,2.8952,2.8952,2.8938,2.9023,2.9036,2.9093,2.8987,2.9238,2.9246,2.9253,2.9335,2.9351,2.9365,0,0,0,0,0,2.8791,2.8878,2.8856,2.887,2.8935,2.8997,2.9005,2.8987,2.8943,2.8984,2.8986,2.8951,2.9079,2.9032,2.9046,2.9105,2.9234,2.9244,2.9252,2.9328,2.9348,2.9365,0,0,0,0,0,0,2.887,2.8879,2.8856,2.895,2.8973,2.8985,2.9036,2.9008,2.9045,2.9036,2.9013,2.9018,2.9104,2.9112,2.906,2.9211,2.9149,2.9162,2.9202,2.9221,2.9236,2.9232,2.8992,0,0,0,0,0,2.8898,2.8946,2.8952,2.9035,2.9048,2.904,2.9066,2.905,2.9073,2.9083,2.9091,2.9115,2.9161,2.9191,2.9233,2.9336,2.9339,2.9384,2.9399,2.9411,2.9422,2.9476,2.9496,2.9286,2.9286,2.9286,0,0,2.8957,2.8968,2.9001,2.9051,2.9067,2.9118,2.9049,2.9106,2.9144,2.9092,2.9167,2.9174,2.92,2.9291,2.9332,2.9302,2.948,2.9422,2.9432,2.9436,2.9487,2.9507,2.9525,2.9292,2.9291,2.929,0,0,2.9091,2.9104,2.9174,2.9191,2.9215,2.9209,2.9226,2.9242,2.9245,2.932,2.9281,2.9326,2.9405,2.9425,2.9445,2.9585,2.9554,2.9599,2.9678,2.9731,2.9747,2.9762,2.9812,2.983,2.961,2.9611,2.9611,0,2.9162,2.9236,2.9214,2.9274,2.9297,2.9251,2.9321,2.9339,2.9376,2.9394,2.9359,2.9456,2.947,2.9565,2.9599,2.9617,2.9635,2.9597,2.9747,2.9761,2.9774,2.9821,2.984,2.9616,2.9615,2.9615,2.9614,0,2.9322,2.9374,2.9428,2.9464,2.9493,2.9558,2.9546,2.9578,2.9559,2.9558,2.9635,2.965,2.9693,2.9715,2.9698,2.9807,2.9787,2.975,2.9688,2.98,2.9844,2.9861,2.9624,2.9622,2.962,2.9619,0,0,2.9508,2.9529,2.9549,2.9564,2.9587,2.9627,2.969,2.9732,2.976,2.9787,2.9839,2.9906,2.9871,2.9894,2.9879,2.9925,3.0035,2.9882,2.9882,2.991,3.0156,3.0184,3.0205,3.0014,3.0017,3.002,3.0153,0,2.9641,2.9748,2.973,2.9834,2.9882,2.9838,2.9893,2.9913,2.9913,2.9954,2.9954,3.0002,2.9952,2.9966,3.001,3.0012,3.0084,3.0002,3.0063,3.0065,3.0057,3.0228,3.0258,3.0383,3.017,3.0173,3.0175,0,2.9811,2.9843,2.9952,2.9966,2.9985,3.0035,3.0071,3.011,3.0132,3.0129,3.0154,3.0129,3.0192,3.0129,3.0215,3.016,3.0184,3.0188,3.0193,3.0198,3.0127,3.0237,3.0423,3.0441,3.0202,3.02,3.0198,0,2.9935,3.0005,3.0079,3.0094,3.0112,3.0147,3.0157,3.0175,3.0201,3.0233,3.0249,3.0289,3.031,3.0341,3.0328,3.0283,3.0417,3.0353,3.0416,3.0417,3.0447,3.0445,3.0638,3.0462,3.0462,3.0462,3.0461,0,3.0086,3.0154,3.0135,3.0181,3.0256,3.0233,3.0309,3.0313,3.0329,3.0375,3.034,3.0384,3.0364,3.0407,3.0397,3.047,3.048,3.0479,3.0476,3.0482,3.0482,3.0498,3.0488,3.0467,3.0465,3.0464,3.0464,0,3.0237,3.0227,3.0305,3.0315,3.0319,3.0374,3.0383,3.0426,3.0422,3.0481,3.0493,3.0489,3.0537,3.0527,3.058,3.0574,3.0665,3.0651,3.0657,3.0654,3.0718,3.0712,3.0928,3.0954,3.0761,3.0763,3.0765,0,3.0334,3.0386,3.0401,3.0428,3.044,3.0485,3.0511,3.0491,3.0519,3.0547,3.0587,3.0632,3.0666,3.0746,3.0748,3.0788,3.0775,3.0847,3.0781,3.0785,3.0776,3.0773,3.0777,3.0861,3.0863,3.0865,3.0866,0,3.0507,3.0499,3.0537,3.0573,3.0604,3.0632,3.0657,3.0682,3.0664,3.0697,3.0746,3.0773,3.0826,3.0871,3.0909,3.0919,3.089,3.0887,3.0904,3.0911,3.0913,3.0912,3.0693,3.0883,3.0881,3.088,3.0879,3.0878,3.0634,3.0677,3.0694,3.0737,3.0753,3.0777,3.0817,3.0818,3.0857,3.0899,3.0885,3.094,3.096,3.1007,3.1021,3.1064,3.1037,3.1062,3.1068,3.1074,3.1082,3.0906,3.1071,3.1071,3.107,3.107,3.1069,0,3.0805,3.0813,3.0853,3.0888,3.0922,3.089,3.0915,3.0946,3.0994,3.1015,3.1049,3.1104,3.1148,3.1152,3.1193,3.1227,3.1214,3.1238,3.1236,3.1238,3.1104,3.1085,3.1247,3.1247,3.1247,3.1247,3.1247,3.1247,3.0898,3.0969,3.0963,3.1041,3.1049,3.1102,3.1119,3.114,3.1156,3.1219,3.1254,3.1256,3.127,3.1312,3.135,3.135,3.1367,3.1396,3.1391,3.1266,3.1248,3.1231,3.1213,3.14,3.14,3.1522,3.1523,3.1524]},{"header":{"parameterUnit":"m.s-1","parameterCategory":1,"la1":30.2991,"la2":30.254,"lo1":-89.0895,"lo2":-89.0444,"dy":0.0017,"dx":0.0017,"nx":28,"ny":28,"refTime":"2026-01-31T09:00:00:Z","depth":0,"parameterNumber":3,"parameterNumberName":"V-component_of_WINDS"},"data":[0,0,0,0,0,0,0,0,0,0,0,0,0,0,0,0,0,0,0,0,0,0,0,0,0,0,0,0,0,0,0,0,0,0,0,0,0,0,0,0,0,0,0,0,0,0,0,0,0,0,0,0,0,0,0,0,0,0,-2.3713,-2.3715,0,-2.3885,-2.3887,-2.3889,-2.3935,-2.3934,-2.3933,-2.3932,-2.4108,-2.4114,-2.4119,0,0,0,0,0,0,0,0,0,0,0,0,0,-2.3425,-2.343,-2.3713,-2.3715,-2.3717,-2.3884,-2.3887,-2.3889,-2.3935,-2.3934,-2.3933,-2.3932,-2.4106,-2.4113,-2.412,0,0,0,0,0,0,0,0,0,0,0,0,0,-2.3569,-2.3432,-2.3712,-2.376,-2.3766,-2.3884,-2.3887,-2.389,-2.3936,-2.3934,-2.3933,-2.3931,-2.4104,-2.4112,-2.4121,-2.4203,0,0,-2.4146,-2.415,0,0,0,0,0,0,0,0,-2.3561,-2.3579,-2.3751,-2.3757,-2.3764,-2.3887,-2.385,-2.3995,-2.3936,-2.3871,-2.3932,-2.3931,-2.4036,-2.405,-2.4085,-2.4211,-2.4219,-2.4147,-2.4152,-2.4156,-2.4158,0,0,0,0,0,0,0,-2.3551,-2.3572,-2.3781,-2.3754,-2.3762,-2.3773,-2.3792,-2.3878,-2.396,-2.3877,-2.3881,-2.39,-2.4039,-2.4077,-2.409,-2.4221,-2.4147,-2.4154,-2.416,-2.4163,-2.4424,-2.4426,0,0,0,0,0,0,-2.3532,-2.3564,-2.3775,-2.3786,-2.3657,-2.378,-2.3801,-2.3849,-2.3959,-2.3975,-2.3902,-2.3902,-2.4063,-2.408,-2.4096,-2.42,-2.4156,-2.4164,-2.4169,-2.4422,-2.4424,-2.4426,0,0,0,0,0,0,-2.3526,-2.3551,-2.3768,-2.3676,-2.3705,-2.3786,-2.384,-2.3853,-2.3891,-2.3978,-2.3993,-2.3925,-2.4063,-2.4084,-2.4176,-2.4207,-2.4168,-2.4175,-2.442,-2.4423,-2.4425,-2.4407,0,0,0,0,0,0,-2.3517,-2.3548,-2.358,-2.3676,-2.3709,-2.3845,-2.3842,-2.3858,-2.3906,-2.3908,-2.4004,-2.4018,-2.4063,-2.4163,-2.4185,-2.4217,-2.4182,-2.4417,-2.4421,-2.4424,-2.4406,-2.4409,-2.4412,0,0,0,0,0,-2.3507,-2.3568,-2.3581,-2.3607,-2.3751,-2.3847,-2.3866,-2.3916,-2.3908,-2.3941,-2.3997,-2.4015,-2.42,-2.4172,-2.4197,-2.4232,-2.4416,-2.442,-2.4424,-2.4404,-2.4408,-2.4412,0,0,0,0,0,0,-2.3473,-2.3581,-2.3597,-2.3691,-2.376,-2.3854,-2.3897,-2.3919,-2.3991,-2.399,-2.405,-2.4071,-2.4159,-2.4205,-2.4173,-2.4318,-2.4308,-2.4317,-2.4285,-2.429,-2.4293,-2.4279,-2.4189,0,0,0,0,0,-2.3476,-2.3545,-2.3636,-2.371,-2.3744,-2.3815,-2.3858,-2.3892,-2.3965,-2.3994,-2.4056,-2.4126,-2.42,-2.4248,-2.4321,-2.4413,-2.4435,-2.445,-2.4453,-2.4455,-2.4462,-2.4515,-2.4523,-2.444,-2.444,-2.444,0,0,-2.3484,-2.3552,-2.3592,-2.3705,-2.3762,-2.3832,-2.3839,-2.3912,-2.3965,-2.4005,-2.4095,-2.4144,-2.4226,-2.4319,-2.4363,-2.436,-2.449,-2.4461,-2.4462,-2.4468,-2.452,-2.4528,-2.4535,-2.4443,-2.4443,-2.4442,0,0,-2.3534,-2.3592,-2.366,-2.3717,-2.3803,-2.385,-2.3866,-2.3958,-2.3992,-2.4084,-2.4115,-2.4179,-2.4305,-2.4363,-2.4408,-2.4481,-2.4501,-2.4503,-2.452,-2.4571,-2.4578,-2.4584,-2.4609,-2.4618,-2.451,-2.451,-2.451,0,-2.3532,-2.3639,-2.3692,-2.3765,-2.3814,-2.3854,-2.3923,-2.3976,-2.4081,-2.4114,-2.411,-2.427,-2.4328,-2.4435,-2.4452,-2.4488,-2.4509,-2.4492,-2.4572,-2.4579,-2.4585,-2.4611,-2.462,-2.451,-2.451,-2.451,-2.451,0,-2.3633,-2.3707,-2.3751,-2.3852,-2.3907,-2.3977,-2.4041,-2.409,-2.4119,-2.4166,-2.426,-2.4331,-2.4419,-2.4447,-2.4476,-2.4559,-2.4554,-2.456,-2.4551,-2.4592,-2.4617,-2.4627,-2.4509,-2.4509,-2.451,-2.451,0,0,-2.3665,-2.3795,-2.381,-2.3857,-2.3955,-2.4013,-2.4086,-2.4172,-2.4213,-2.4284,-2.4347,-2.4453,-2.446,-2.4512,-2.4548,-2.4592,-2.4645,-2.4593,-2.4596,-2.46,-2.474,-2.4734,-2.4745,-2.4659,-2.4661,-2.4663,-2.4733,0,-2.3726,-2.3857,-2.3908,-2.4015,-2.4084,-2.4123,-2.4187,-2.4254,-2.43,-2.4366,-2.4417,-2.4492,-2.4495,-2.4526,-2.4572,-2.4629,-2.4674,-2.4624,-2.4718,-2.4721,-2.4695,-2.4758,-2.4752,-2.4814,-2.4743,-2.4745,-2.4746,0,-2.3815,-2.3888,-2.4001,-2.4092,-2.4123,-2.4179,-2.4262,-2.4324,-2.4402,-2.4432,-2.4491,-2.4524,-2.4602,-2.4589,-2.4698,-2.4663,-2.4705,-2.4738,-2.4742,-2.4752,-2.4735,-2.4769,-2.4836,-2.4845,-2.4762,-2.4761,-2.476,0,-2.3827,-2.3953,-2.4037,-2.4076,-2.4183,-2.4222,-2.4268,-2.4344,-2.4393,-2.4467,-2.4499,-2.458,-2.4625,-2.4687,-2.4742,-2.4727,-2.4846,-2.4837,-2.4873,-2.4872,-2.4896,-2.4893,-2.4969,-2.4923,-2.4923,-2.4923,-2.4923,0,-2.389,-2.3958,-2.4044,-2.4096,-2.4173,-2.4231,-2.4306,-2.4356,-2.4423,-2.4485,-2.4525,-2.4583,-2.4652,-2.4719,-2.4762,-2.4845,-2.4865,-2.4893,-2.4903,-2.4889,-2.4885,-2.4916,-2.4913,-2.4926,-2.4925,-2.4925,-2.4924,0,-2.3915,-2.3975,-2.407,-2.4164,-2.419,-2.4242,-2.4323,-2.4375,-2.4424,-2.4503,-2.4524,-2.4601,-2.4682,-2.4743,-2.4848,-2.4877,-2.4966,-2.4977,-2.4939,-2.4944,-2.4977,-2.4973,-2.5076,-2.5092,-2.5035,-2.5035,-2.5036,0,-2.3951,-2.4004,-2.4104,-2.4148,-2.4195,-2.4266,-2.4316,-2.4376,-2.4426,-2.4519,-2.456,-2.4644,-2.4714,-2.4841,-2.4906,-2.4987,-2.5,-2.5031,-2.5013,-2.4997,-2.5,-2.4996,-2.5002,-2.5033,-2.5033,-2.5033,-2.5033,0,-2.4008,-2.4035,-2.4106,-2.4187,-2.4246,-2.4313,-2.4381,-2.4415,-2.4487,-2.4542,-2.4625,-2.4679,-2.4787,-2.4869,-2.4957,-2.5005,-2.5032,-2.5039,-2.5051,-2.5037,-2.5013,-2.5026,-2.4945,-2.5036,-2.5036,-2.5035,-2.5035,-2.5035,-2.404,-2.4089,-2.4167,-2.4244,-2.4302,-2.4364,-2.4418,-2.4473,-2.4543,-2.4635,-2.4666,-2.4752,-2.4829,-2.4949,-2.4999,-2.5067,-2.5068,-2.5086,-2.509,-2.5094,-2.5093,-2.5002,-2.5084,-2.5084,-2.5084,-2.5084,-2.5084,0,-2.4098,-2.4151,-2.4221,-2.4315,-2.4376,-2.4396,-2.4472,-2.4522,-2.4597,-2.4666,-2.4734,-2.483,-2.4911,-2.4983,-2.5067,-2.5108,-2.5122,-2.5128,-2.5125,-2.5136,-2.5088,-2.5068,-2.5115,-2.5115,-2.5115,-2.5115,-2.5115,-2.5115,-2.4136,-2.422,-2.4257,-2.437,-2.4423,-2.4506,-2.4548,-2.4607,-2.4662,-2.4767,-2.4834,-2.4881,-2.4952,-2.5041,-2.5116,-2.5136,-2.5165,-2.5167,-2.5189,-2.5143,-2.5139,-2.5135,-2.5117,-2.5173,-2.5173,-2.5232,-2.5232,-2.5233]}]]